Weather History for KMBL - January, 2013

Change the Weather History Date:

Tuesday, January 8, 2013

  Actual Average Record
Temperature  
Mean Temperature 32 °F -  
Max Temperature 39 °F 26 °F 50 °F (1949)
Min Temperature 24 °F 13 °F 2 °F (1968)
Degree Days  
Heating Degree Days 34    
Moisture  
Dew Point 27 °F    
Average Humidity 74    
Maximum Humidity 93    
Minimum Humidity 61    
Precipitation  
Precipitation 0.00 in - - ()
Sea Level Pressure  
Sea Level Pressure 30.07 in    
Wind  
Wind Speed 6 mph (SSE)    
Max Wind Speed 13 mph    
Max Gust Speed 20 mph    
Visibility 8 miles    
Events      
Averages and records for this station are not official NWS values.
T = Trace of Precipitation, MM = Missing Value Source: NWS Daily Summary

Daily Weather History Graph

Daily Weather History Graph

Search for Another Location

Airport or City:

Trip Planner

Search our weather history database for the weather conditions in past years. The results will help you decide how hot, cold, wet, or windy it might be!

Date:

Astronomy

Jan. 08, 2013 Rise Set
Actual Time 8:19 AM EST 5:24 PM EST
Civil Twilight 7:47 AM EST 5:56 PM EST
Nautical Twilight 7:11 AM EST 6:33 PM EST
Astronomical Twilight 6:36 AM EST 7:08 PM EST
Moon 4:51 AM EST (1/8) 2:26 PM EST (1/8)
Length of Visible Light 10h 09m
Length of Day
9h 04m
Waning Crescent, 14% of the Moon is Illuminated
Jan 8
Waning Crescent
Jan 11
New
Jan 18
First Quarter
Jan 26
Full
Feb 3
Last Quarter

Hourly Weather History & Observations

Time (EST) Temp. Windchill Dew Point Humidity Pressure Visibility Wind Dir Wind Speed Gust Speed Precip Events Conditions
12:15 AM 37.4 °F 29.8 °F 26.6 °F 65% 30.03 in 10.0 mi WSW 11.5 mph - N/A   Clear
12:35 AM 37.4 °F 30.8 °F 26.6 °F 65% 30.03 in 10.0 mi SW 9.2 mph - N/A   Clear
12:55 AM 37.4 °F 32.1 °F 26.6 °F 65% 30.03 in 10.0 mi SW 6.9 mph - N/A   Clear
1:15 AM 37.4 °F 30.3 °F 28.4 °F 70% 30.03 in 10.0 mi SW 10.4 mph - N/A   Clear
1:55 AM 37.4 °F 32.8 °F 26.6 °F 65% 30.04 in 10.0 mi WSW 5.8 mph - N/A   Partly Cloudy
2:15 AM 35.6 °F 29.9 °F 26.6 °F 70% 30.05 in 10.0 mi WSW 6.9 mph - N/A   Partly Cloudy
2:35 AM 35.6 °F 30.7 °F 28.4 °F 75% 30.05 in 10.0 mi WSW 5.8 mph - N/A   Partly Cloudy
2:55 AM 35.6 °F 29.9 °F 26.6 °F 70% 30.05 in 10.0 mi WSW 6.9 mph - N/A   Clear
3:15 AM 35.6 °F 32.8 °F 26.6 °F 70% 30.06 in 10.0 mi WSW 3.5 mph - N/A   Clear
3:35 AM 35.6 °F 31.7 °F 26.6 °F 70% 30.07 in 10.0 mi SW 4.6 mph - N/A   Partly Cloudy
3:55 AM 35.6 °F 32.8 °F 26.6 °F 70% 30.06 in 10.0 mi SSW 3.5 mph - N/A   Partly Cloudy
4:15 AM 33.8 °F - 26.6 °F 75% 30.06 in 10.0 mi Calm Calm - N/A   Clear
4:35 AM 30.2 °F - 24.8 °F 80% 30.06 in 8.0 mi Calm Calm - N/A   Clear
4:55 AM 28.4 °F - 24.8 °F 86% 30.06 in 5.0 mi Calm Calm - N/A   Clear
5:15 AM 26.6 °F - 24.8 °F 93% 30.06 in 5.0 mi Calm Calm - N/A   Clear
5:35 AM 26.6 °F - 23.0 °F 86% 30.07 in 4.0 mi Calm Calm - N/A   Clear
5:55 AM 26.6 °F 22.6 °F 24.8 °F 93% 30.07 in 3.0 mi SE 3.5 mph - N/A   Clear
6:15 AM 26.6 °F - 24.8 °F 93% 30.07 in 1.8 mi Calm Calm - N/A   Clear
6:35 AM 26.6 °F - 21.2 °F 80% 30.08 in 3.0 mi Calm Calm - N/A   Clear
6:55 AM 28.4 °F - 24.8 °F 86% 30.08 in 5.0 mi Calm Calm - N/A   Clear
7:15 AM 24.8 °F 20.5 °F 21.2 °F 86% 30.09 in 3.0 mi East 3.5 mph - N/A   Clear
7:35 AM 24.8 °F 19.1 °F 23.0 °F 93% 30.10 in 1.0 mi East 4.6 mph - N/A   Clear
7:55 AM 24.8 °F 20.5 °F 21.2 °F 86% 30.10 in 1.5 mi East 3.5 mph - N/A   Clear
8:15 AM 26.6 °F 22.6 °F 24.8 °F 93% 30.11 in 1.5 mi East 3.5 mph - N/A   Clear
8:35 AM 26.6 °F - 24.8 °F 93% 30.12 in 1.5 mi Calm Calm - N/A   Clear
9:15 AM 26.6 °F 22.6 °F 24.8 °F 93% 30.12 in 1.5 mi ESE 3.5 mph - N/A   Clear
9:35 AM 28.4 °F 24.6 °F 24.8 °F 86% 30.13 in 1.8 mi East 3.5 mph - N/A   Clear
10:15 AM 30.2 °F 26.7 °F 26.6 °F 86% 30.14 in 2.5 mi East 3.5 mph - N/A   Clear
10:35 AM 30.2 °F - 26.6 °F 86% 30.14 in 3.0 mi Calm Calm - N/A   Clear
10:55 AM 33.8 °F 28.6 °F 28.4 °F 81% 30.14 in 5.0 mi SSE 5.8 mph - N/A   Scattered Clouds
11:15 AM 35.6 °F 30.7 °F 30.2 °F 81% 30.14 in 5.0 mi SSE 5.8 mph - N/A   Overcast
11:35 AM 35.6 °F - 28.4 °F 75% 30.14 in 5.0 mi Calm Calm - N/A   Overcast
11:55 AM 37.4 °F 32.8 °F 30.2 °F 75% 30.13 in 5.0 mi South 5.8 mph - N/A   Mostly Cloudy
12:15 PM 37.4 °F 32.1 °F 30.2 °F 75% 30.12 in 5.0 mi SSW 6.9 mph - N/A   Partly Cloudy
12:35 PM 37.4 °F 33.8 °F 30.2 °F 75% 30.11 in 6.0 mi South 4.6 mph - N/A   Clear
12:55 PM 39.2 °F 35.9 °F 30.2 °F 70% 30.10 in 7.0 mi South 4.6 mph - N/A   Clear
1:15 PM 39.2 °F 33.6 °F 30.2 °F 70% 30.10 in 7.0 mi SSE 8.1 mph - N/A   Partly Cloudy
1:35 PM 39.2 °F 34.2 °F 30.2 °F 70% 30.10 in 7.0 mi SSE 6.9 mph - N/A   Clear
1:55 PM 39.2 °F 34.2 °F 28.4 °F 65% 30.10 in 7.0 mi SSE 6.9 mph - N/A   Partly Cloudy
2:15 PM 39.2 °F 33.0 °F 30.2 °F 70% 30.10 in 7.0 mi SSE 9.2 mph - N/A   Scattered Clouds
2:55 PM 39.2 °F 33.6 °F 30.2 °F 70% 30.10 in 8.0 mi South 8.1 mph - N/A   Mostly Cloudy
3:15 PM 39.2 °F 33.0 °F 30.2 °F 70% 30.10 in 8.0 mi South 9.2 mph - N/A   Mostly Cloudy
3:35 PM 39.2 °F 33.6 °F 30.2 °F 70% 30.11 in 8.0 mi South 8.1 mph - N/A   Partly Cloudy
3:55 PM 39.2 °F 35.9 °F 30.2 °F 70% 30.10 in 9.0 mi SSE 4.6 mph - N/A   Clear
4:15 PM 39.2 °F 35.0 °F 30.2 °F 70% 30.10 in 10.0 mi SSE 5.8 mph - N/A   Clear
4:35 PM 39.2 °F 35.0 °F 30.2 °F 70% 30.10 in 9.0 mi SSE 5.8 mph - N/A   Clear
4:55 PM 39.2 °F 35.9 °F 30.2 °F 70% 30.09 in 10.0 mi SSE 4.6 mph - N/A   Clear
5:15 PM 39.2 °F 35.9 °F 30.2 °F 70% 30.09 in 10.0 mi SE 4.6 mph - N/A   Clear
5:35 PM 39.2 °F 35.0 °F 28.4 °F 65% 30.08 in 10.0 mi SSE 5.8 mph - N/A   Clear
5:55 PM 39.2 °F 35.0 °F 28.4 °F 65% 30.08 in 10.0 mi SSE 5.8 mph - N/A   Clear
6:15 PM 39.2 °F 33.6 °F 28.4 °F 65% 30.07 in 10.0 mi South 8.1 mph - N/A   Clear
6:35 PM 39.2 °F 34.2 °F 26.6 °F 61% 30.07 in 10.0 mi SSE 6.9 mph - N/A   Clear
6:55 PM 37.4 °F 32.1 °F 26.6 °F 65% 30.05 in 10.0 mi SE 6.9 mph - N/A   Clear
7:15 PM 37.4 °F 30.3 °F 28.4 °F 70% 30.04 in 10.0 mi SSE 10.4 mph - N/A   Clear
7:35 PM 37.4 °F 31.4 °F 26.6 °F 65% 30.04 in 10.0 mi SE 8.1 mph - N/A   Clear
7:55 PM 35.6 °F 29.2 °F 26.6 °F 70% 30.04 in 10.0 mi SSE 8.1 mph - N/A   Clear
8:15 PM 35.6 °F 29.2 °F 26.6 °F 70% 30.03 in 10.0 mi SSE 8.1 mph 18.4 mph N/A   Clear
8:35 PM 35.6 °F 28.6 °F 24.8 °F 65% 30.03 in 10.0 mi South 9.2 mph 16.1 mph N/A   Clear
8:55 PM 35.6 °F 28.6 °F 24.8 °F 65% 30.02 in 10.0 mi SSE 9.2 mph - N/A   Clear
9:15 PM 35.6 °F 30.7 °F 24.8 °F 65% 30.02 in 10.0 mi South 5.8 mph - N/A   Clear
9:35 PM 35.6 °F 29.2 °F 24.8 °F 65% 30.01 in 10.0 mi SSE 8.1 mph - N/A   Clear
9:55 PM 35.6 °F 29.2 °F 24.8 °F 65% 30.01 in 10.0 mi South 8.1 mph 16.1 mph N/A   Clear
10:15 PM 35.6 °F 28.6 °F 24.8 °F 65% 30.00 in 10.0 mi SSE 9.2 mph - N/A   Clear
10:35 PM 35.6 °F 28.6 °F 26.6 °F 70% 29.99 in 10.0 mi SSE 9.2 mph 16.1 mph N/A   Clear
10:55 PM 35.6 °F 29.2 °F 26.6 °F 70% 29.98 in 10.0 mi South 8.1 mph - N/A   Clear
11:15 PM 35.6 °F 27.5 °F 26.6 °F 70% 29.99 in 10.0 mi South 11.5 mph 19.6 mph N/A   Clear
11:35 PM 35.6 °F 27.1 °F 26.6 °F 70% 29.99 in 10.0 mi South 12.7 mph 18.4 mph N/A   Clear
11:55 PM 35.6 °F 27.1 °F 26.6 °F 70% 29.98 in 10.0 mi South 12.7 mph 19.6 mph N/A   Clear